Overview Statistics Trail Chart Weather Telemetry Raw packets
 

This is the latest recevied weather packets stored in our database for station/object DM8MH-13. If no packets are shown the sender has not sent any weather packets the latest 10 day(s).

<< 3 4 5 6 7 8 9 >>
Time Temp. Humidity Pressure Rain* Wind** Luminosity Snow
1788624070 20.56° C 55% 1019.7 hPa 0 mm - 45 W/m² -
1788623470 21.11° C 54% 1019.6 hPa 0 mm - 109 W/m² -
1788622870 20.56° C 54% 1019.5 hPa 0 mm - 194 W/m² -
1788622271 20.56° C 54% 1019.3 hPa 0 mm - 25 W/m² -
1788621674 20.56° C 53% 1019.1 hPa 0 mm - 31 W/m² -
1788621070 21.11° C 52% 1018.7 hPa 0 mm - 90 W/m² -
1788620470 21.11° C 51% 1018.7 hPa 0 mm - 135 W/m² -
1788619871 21.11° C 51% 1018.7 hPa 0 mm - 112 W/m² -
1788619270 21.11° C 52% 1018.7 hPa 0 mm - 71 W/m² -
1788618671 21.11° C 52% 1018.8 hPa 0 mm - 95 W/m² -
1788618071 21.67° C 52% 1018.6 hPa 0 mm - 150 W/m² -
1788617471 21.67° C 52% 1018.7 hPa 0 mm - 235 W/m² -
1788616870 21.67° C 52% 1018.6 hPa 0 mm - 304 W/m² -
1788616270 21.67° C 51% 1018.7 hPa 0 mm - 568 W/m² -
1788615670 21.11° C 54% 1018.5 hPa 0 mm - 326 W/m² -
1788615071 21.11° C 54% 1018.6 hPa 0 mm - 136 W/m² -
1788614471 21.11° C 54% 1018.5 hPa 0 mm - 362 W/m² -
1788613871 20.56° C 53% 1018.6 hPa 0 mm - 93 W/m² -
1788613271 21.11° C 53% 1018.5 hPa 0 mm - 146 W/m² -
1788612670 21.11° C 52% 1018.6 hPa 0 mm - 203 W/m² -
1788612070 20.56° C 53% 1018.5 hPa 0 mm - 301 W/m² -
1788611471 20.56° C 53% 1018.5 hPa 0 mm - 126 W/m² -
1788610871 20.56° C 54% 1018.5 hPa 0 mm - 149 W/m² -
1788610271 21.11° C 53% 1018.5 hPa 0 mm - 323 W/m² -
1788609671 20.56° C 54% 1018.3 hPa 0 mm - 211 W/m² -

* Rain latest hour (hover to see other rain measurements)
** Current wind speed in m/s (hover to see current wind gust speed)